Temp
-8 -9 -9 -9 -9 -10 -10 -10 -9 -9 -9 -9 -9 -8 -8 -8 -8 -8 -8 -9 -9 -8 -8 -8 -8 -8 -8 -8 -8 -8 -9 -8 -8 -8 -8 -8 -8 -8 -8 -8 -9 -8 -8
-8 -9 -9 -9 -9 -9 -9 -9 -9 -9 -9 -9 -9 -8 -8 -8 -8 -8 -8 -8 -8 -9 -9 -9 -8 -8 -8 -8 -8 -8 -8 -8 -9 -8 -8 -8 -8 -8 -8 -8 -9 -9 -9
-8 -8 -9 -9 -9 -9 -9 -9 -9 -9 -9 -9 -9 -8 -9 -7 -7 -8 -8 -8 -9 -9 -8 -9 -9 -8 -8 -9 -8 -8 -8 -8 -8 -8 -8 -8 -8 -9 -9 -9 -9 -9 -9
-8 -8 -8 -8 -9 -9 -9 -9 -9 -9 -9 -9 -9 -9 -9 -9 -8 -8 -8 -8 -8 -8 -9 -9 -9 -9 -9 -8 -8 -8 -8 -8 -8 -8 -8 -8 -9 -9 -9 -9 -9 -9 -9
-8 -8 -9 -9 -9 -9 -9 -9 -9 -8 -8 -8 -8 -9 -9 -9 -9 -9 -9 -8 -8 -8 -8 -8 -9 -9 -9 -8 -8 -8 -8 -8 -8 -8 -9 -9 -9 -9 -9 -9 -9 -9 -9
-8 -8 -8 -9 -9 -9 -9 -9 -9 -8 -8 -8 -8 -8 -8 -9 -9 -8 -9 -9 -8 -8 -8 -8 -8 -8 -8 -8 -8 -8 -8 -8 -9 -9 -9 -10 -10 -10 -9 -9 -9 -9 -9
-8 -8 -8 -8 -9 -9 -8 -8 -9 -9 -8 -8 -8 -7 -8 -8 -8 -8 -8 -8 -8 -8 -9 -8 -8 -8 -8 -8 -8 -8 -8 -9 -9 -9 -9 -9 -10 -9 -9 -9 -9 -9 -9
-8 -8 -8 -8 -8 -9 -8 -8 -8 -9 -9 -9 -8 -8 -8 -8 -8 -8 -7 -8 -8 -8 -8 -8 -8 -8 -8 -8 -8 -8 -8 -9 -9 -9 -9 -9 -10 -9 -9 -9 -9 -9 -9
-8 -8 -8 -8 -8 -8 -8 -8 -8 -8 -8 -8 -8 -8 -8 -8 -8 -8 -8 -8 -8 -8 -8 -8 -8 -8 -8 -8 -8 -8 -8 -9 -9 -9 -9 -9 -9 -9 -9 -9 -9 -9 -9
-8 -8 -8 -8 -8 -8 -8 -8 -8 -8 -8 -8 -8 -8 -8 -8 -8 -8 -8 -8 -8 -8 -8 -8 -8 -8 -8 -8 -8 -8 -9 -9 -10 -10 -9 -9 -9 -10 -9 -9 -9 -9 -9
-8 -8 -8 -9 -9 -9 -8 -8 -8 -8 -8 -8 -8 -8 -8 -8 -8 -8 -8 -8 -8 -8 -8 -8 -8 -9 -9 -9 -9 -9 -9 -9 -9 -9 -9 -9 -9 -9 -9 -9 -9 -9 -10
-8 -8 -8 -8 -9 -9 -9 -8 -9 -8 -8 -8 -8 -8 -8 -8 -8 -8 -8 -8 -8 -8 -8 -8 -9 -9 -9 -9 -9 -9 -9 -9 -9 -9 -9 -9 -9 -9 -10 -10 -10 -9 -10
-9 -9 -8 -8 -8 -8 -9 -9 -8 -8 -8 -8 -8 -8 -8 -8 -8 -9 -9 -9 -9 -9 -9 -9 -9 -9 -9 -9 -9 -9 -9 -9 -9 -9 -9 -9 -9 -9 -10 -10 -10 -10 -10
-9 -9 -9 -9 -9 -8 -9 -9 -9 -8 -8 -8 -8 -8 -8 -9 -9 -9 -9 -9 -9 -9 -9 -9 -9 -9 -9 -10 -10 -9 -9 -9 -9 -9 -9 -10 -10 -10 -10 -10 -10 -10 -10
-9 -9 -9 -9 -9 -9 -9 -9 -9 -8 -8 -8 -9 -8 -9 -9 -9 -9 -9 -9 -10 -9 -10 -10 -10 -10 -10 -10 -9 -9 -9 -9 -9 -9 -9 -10 -10 -10 -10 -10 -10 -10 -10
-10 -10 -9 -9 -9 -9 -9 -9 -9 -9 -8 -9 -9 -9 -9 -9 -9 -9 -9 -9 -9 -10 -10 -10 -10 -10 -10 -10 -9 -9 -9 -9 -9 -10 -10 -10 -10 -10 -10 -10 -10 -10 -10
-10 -10 -10 -9 -9 -9 -9 -9 -9 -9 -9 -9 -9 -9 -9 -9 -9 -9 -9 -9 -9 -9 -9 -9 -9 -9 -9 -9 -9 -8 -9 -9 -10 -10 -10 -10 -10 -10 -10 -10 -10 -10 -10
-11 -10 -10 -10 -10 -9 -10 -9 -9 -9 -9 -9 -9 -9 -9 -9 -9 -9 -9 -9 -9 -9 -9 -9 -9 -9 -9 -9 -9 -9 -10 -10 -10 -10 -10 -10 -10 -10 -10 -10 -10 -10 -10
-11 -10 -10 -10 -10 -10 -9 -10 -9 -9 -9 -9 -9 -9 -9 -9 -9 -9 -9 -9 -9 -9 -9 -9 -9 -9 -9 -9 -9 -10 -10 -10 -10 -10 -10 -10 -10 -10 -10 -11 -11 -11 -11
-11 -10 -10 -10 -10 -10 -10 -10 -10 -10 -10 -10 -9 -9 -9 -9 -9 -9 -9 -9 -9 -9 -9 -9 -9 -9 -9 -10 -10 -10 -10 -11 -11 -10 -10 -11 -11 -11 -11 -11 -12 -12 -12
-11 -11 -10 -10 -10 -10 -10 -10 -10 -10 -10 -10 -10 -10 -10 -9 -9 -9 -9 -9 -9 -9 -9 -9 -10 -10 -10 -10 -10 -11 -11 -11 -11 -11 -11 -11 -11 -11 -12 -12 -12 -12 -12
-11 -11 -11 -11 -11 -11 -11 -11 -10 -10 -10 -10 -10 -10 -9 -9 -9 -9 -9 -9 -9 -9 -9 -10 -10 -10 -10 -11 -11 -11 -11 -11 -11 -11 -11 -11 -12 -12 -12 -12 -12 -12 -12
-11 -11 -11 -11 -11 -11 -11 -11 -11 -11 -11 -10 -10 -10 -10 -10 -9 -9 -9 -10 -10 -10 -9 -10 -10 -10 -11 -11 -11 -11 -11 -12 -12 -12 -12 -12 -12 -12 -12 -12 -12 -13 -13
-12 -11 -11 -11 -12 -12 -11 -11 -11 -11 -11 -11 -10 -10 -10 -10 -10 -10 -10 -10 -10 -10 -10 -10 -10 -11 -11 -11 -11 -11 -12 -12 -12 -12 -12 -12 -13 -13 -12 -12 -13 -13 -14
-12 -12 -12 -12 -12 -12 -11 -11 -11 -11 -11 -11 -11 -11 -10 -10 -10 -10 -10 -10 -10 -10 -10 -10 -11 -11 -11 -12 -12 -12 -12 -12 -12 -13 -13 -12 -13 -13 -13 -13 -13 -14 -14
-12 -12 -12 -12 -12 -12 -12 -11 -11 -11 -11 -11 -11 -11 -11 -11 -11 -10 -10 -10 -10 -10 -10 -11 -11 -12 -12 -12 -12 -12 -12 -12 -13 -13 -13 -13 -13 -13 -13 -14 -14 -14 -15
Height
5856 5853 5853 5853 5852 5850 5851 5851 5851 5850 5848 5846 5844 5843 5843 5844 5846 5847 5847 5849 5850 5851 5853 5854 5855 5858 5861 5863 5864 5866 5867 5869 5869 5869 5871 5871 5871 5870 5871 5871 5872 5873 5873
5858 5854 5855 5856 5856 5854 5854 5854 5854 5853 5852 5851 5848 5846 5845 5846 5848 5849 5850 5851 5853 5855 5856 5856 5858 5860 5862 5864 5866 5868 5869 5870 5869 5870 5870 5870 5872 5871 5872 5873 5873 5874 5873
5859 5857 5857 5858 5858 5857 5856 5855 5856 5855 5854 5853 5851 5850 5848 5848 5850 5851 5852 5854 5855 5857 5858 5860 5862 5863 5863 5865 5867 5868 5868 5868 5870 5870 5870 5870 5871 5872 5873 5874 5874 5873 5872
5860 5859 5860 5859 5860 5859 5858 5858 5858 5857 5856 5855 5854 5853 5852 5852 5853 5854 5855 5855 5857 5858 5860 5860 5862 5864 5866 5866 5867 5867 5867 5868 5868 5870 5870 5871 5872 5873 5873 5873 5873 5871 5870
5860 5861 5861 5860 5861 5861 5861 5860 5860 5859 5859 5857 5857 5857 5857 5856 5856 5857 5857 5857 5858 5859 5861 5862 5862 5864 5865 5865 5866 5866 5867 5867 5868 5869 5871 5871 5871 5872 5872 5871 5871 5870 5869
5861 5862 5862 5863 5863 5863 5864 5863 5863 5862 5861 5860 5860 5860 5860 5861 5861 5860 5860 5860 5861 5862 5862 5864 5865 5866 5866 5866 5867 5867 5867 5868 5870 5869 5870 5870 5871 5871 5871 5871 5870 5870 5868
5863 5863 5864 5864 5865 5865 5865 5866 5865 5865 5864 5864 5864 5863 5862 5863 5864 5865 5865 5865 5864 5864 5865 5866 5866 5867 5869 5869 5869 5868 5869 5868 5869 5869 5870 5870 5870 5871 5871 5870 5868 5867 5866
5865 5865 5865 5866 5867 5867 5867 5867 5867 5868 5868 5868 5867 5867 5867 5867 5867 5867 5866 5866 5867 5867 5867 5867 5867 5867 5868 5869 5869 5869 5870 5869 5870 5869 5870 5870 5869 5870 5867 5866 5866 5865 5863
5866 5867 5867 5868 5869 5870 5870 5870 5869 5870 5870 5870 5870 5870 5870 5871 5870 5870 5869 5869 5869 5870 5869 5869 5869 5869 5870 5870 5869 5869 5869 5868 5868 5868 5868 5868 5868 5866 5865 5865 5863 5862 5860
5867 5868 5869 5870 5871 5872 5872 5873 5872 5871 5872 5872 5873 5873 5873 5872 5872 5871 5871 5872 5872 5872 5871 5871 5870 5870 5870 5870 5870 5869 5868 5867 5867 5866 5866 5866 5865 5864 5863 5862 5860 5859 5857
5868 5869 5870 5871 5872 5873 5874 5874 5874 5874 5874 5874 5874 5875 5875 5874 5874 5873 5873 5873 5874 5874 5872 5871 5871 5870 5870 5870 5869 5868 5867 5867 5866 5865 5864 5863 5862 5862 5860 5859 5857 5855 5854
5870 5869 5870 5871 5872 5874 5874 5875 5875 5874 5875 5875 5875 5875 5875 5875 5875 5875 5875 5875 5875 5874 5873 5872 5872 5871 5871 5870 5868 5867 5866 5865 5864 5862 5860 5859 5859 5857 5856 5854 5852 5850 5849
5870 5870 5870 5871 5872 5874 5874 5874 5875 5875 5874 5874 5874 5874 5874 5875 5875 5875 5875 5875 5874 5873 5872 5871 5870 5870 5868 5867 5866 5864 5862 5861 5860 5857 5859 5858 5856 5854 5851 5849 5848 5846 5843
5868 5869 5869 5870 5872 5872 5873 5874 5873 5873 5875 5873 5872 5872 5872 5873 5872 5872 5873 5872 5871 5870 5870 5868 5868 5866 5865 5864 5862 5860 5857 5856 5854 5854 5854 5853 5851 5848 5846 5843 5841 5839 5836
5866 5867 5868 5869 5871 5871 5872 5872 5871 5872 5873 5872 5872 5871 5872 5872 5871 5870 5870 5869 5867 5865 5864 5864 5863 5862 5860 5859 5857 5854 5853 5853 5851 5849 5850 5848 5845 5842 5840 5839 5836 5834 5833
5864 5864 5865 5867 5869 5869 5871 5871 5869 5869 5870 5870 5871 5870 5871 5870 5870 5870 5869 5866 5864 5863 5862 5861 5860 5860 5857 5855 5852 5850 5851 5850 5847 5846 5844 5841 5838 5837 5835 5833 5831 5829 5827
5860 5861 5865 5866 5866 5867 5869 5869 5869 5868 5869 5869 5868 5869 5869 5868 5867 5866 5865 5863 5860 5860 5859 5858 5858 5856 5853 5851 5849 5847 5848 5847 5843 5841 5839 5837 5834 5831 5829 5827 5825 5823 5820
5855 5857 5860 5863 5863 5864 5866 5866 5866 5866 5866 5866 5866 5866 5865 5865 5864 5863 5862 5860 5857 5856 5855 5855 5853 5850 5849 5847 5845 5842 5842 5839 5838 5835 5833 5830 5828 5827 5824 5822 5820 5817 5814
5850 5851 5854 5857 5858 5860 5861 5862 5863 5862 5862 5863 5862 5863 5862 5861 5860 5859 5859 5857 5854 5853 5852 5851 5848 5845 5844 5842 5840 5838 5836 5834 5832 5830 5828 5826 5824 5823 5820 5817 5813 5809 5806
5847 5847 5849 5851 5852 5854 5856 5857 5858 5858 5858 5858 5858 5858 5858 5858 5857 5856 5855 5854 5852 5850 5848 5846 5843 5841 5840 5838 5836 5833 5830 5828 5826 5824 5823 5822 5820 5817 5814 5810 5806 5802 5799
5841 5842 5844 5845 5847 5849 5850 5851 5852 5853 5854 5854 5854 5854 5854 5854 5853 5853 5851 5850 5848 5846 5844 5842 5838 5837 5836 5834 5831 5829 5826 5823 5821 5819 5817 5815 5812 5809 5806 5802 5798 5794 5790
5832 5833 5835 5838 5840 5842 5844 5845 5847 5848 5849 5849 5849 5849 5850 5849 5849 5847 5846 5844 5843 5841 5839 5836 5834 5832 5831 5829 5827 5824 5822 5819 5816 5813 5811 5809 5805 5801 5797 5793 5789 5785 5780
5822 5824 5827 5830 5833 5835 5837 5838 5840 5842 5843 5843 5843 5845 5844 5844 5843 5842 5840 5838 5837 5836 5834 5831 5829 5826 5825 5823 5820 5819 5816 5814 5811 5808 5805 5801 5797 5793 5789 5785 5781 5776 5772
5812 5814 5818 5821 5824 5827 5830 5831 5833 5835 5836 5836 5838 5838 5838 5837 5837 5835 5835 5832 5831 5830 5828 5826 5823 5822 5819 5817 5814 5812 5810 5808 5806 5802 5798 5795 5790 5786 5782 5778 5773 5768 5763
5803 5806 5809 5813 5816 5819 5821 5823 5825 5827 5828 5829 5831 5831 5831 5830 5829 5828 5828 5826 5825 5823 5821 5820 5817 5816 5814 5812 5809 5806 5804 5801 5797 5793 5788 5785 5782 5778 5774 5769 5764 5759 5754
5793 5796 5800 5804 5808 5810 5813 5816 5817 5819 5819 5822 5823 5823 5823 5822 5822 5822 5821 5820 5818 5816 5815 5813 5811 5809 5807 5805 5803 5801 5799 5797 5794 5789 5784 5779 5776 5772 5768 5763 5757 5752 5746
Wind_Speed
17 22 20 18 17 17 15 14 11 9 12 13 14 12 11 10 12 14 19 21 20 22 20 14 16 19 16 15 12 11 11 10 10 9 6 4 4 7 7 6 5 3 2
16 22 23 20 19 18 15 14 13 11 11 13 16 14 12 13 14 14 15 19 19 17 16 13 14 14 15 12 11 10 9 9 9 7 6 6 6 6 6 4 2 3 6
15 21 22 18 16 15 13 12 13 13 12 11 12 17 15 14 15 16 16 13 19 17 13 11 12 13 13 12 11 11 10 9 7 6 4 4 6 7 3 0 2 4 5
15 17 18 16 15 16 14 13 13 13 13 14 13 16 19 21 17 12 16 16 16 14 13 14 12 14 13 12 11 9 8 8 6 5 3 5 6 5 3 2 2 3 6
15 15 14 15 12 14 15 14 14 15 14 14 14 16 17 16 19 19 21 19 19 19 17 17 17 15 14 12 10 9 8 6 5 6 6 7 5 4 4 4 5 6 9
12 13 13 13 14 12 13 13 15 16 16 17 15 15 17 16 16 15 15 16 16 15 15 15 14 11 10 9 8 8 6 6 7 8 9 8 6 6 7 6 7 10 12
10 11 10 10 10 11 11 13 13 14 15 16 17 16 15 15 15 14 13 11 12 11 11 10 11 9 7 7 6 6 6 4 4 6 5 8 5 10 9 10 11 13 16
9 10 8 8 7 8 10 11 12 12 13 13 14 16 16 15 14 14 14 13 11 10 9 8 7 6 4 4 3 4 4 3 4 5 7 8 8 12 12 13 15 17 19
10 9 9 8 7 7 9 11 12 12 12 12 13 13 13 13 13 13 13 11 10 7 6 5 4 4 4 4 4 4 4 6 6 6 8 10 12 13 15 16 18 20 22
8 7 7 7 7 8 8 10 12 13 13 13 14 14 14 14 15 14 14 12 10 8 7 6 4 3 1 1 2 2 3 4 6 8 10 11 14 16 17 18 20 21 22
5 5 5 4 5 5 6 7 9 11 12 12 12 12 12 13 13 13 12 11 9 8 7 6 5 4 4 4 4 5 6 6 8 10 13 16 16 18 19 20 22 24 24
3 2 2 2 2 2 2 3 4 5 6 6 6 7 8 8 8 8 8 7 7 7 6 6 6 6 7 7 8 9 10 10 11 13 15 17 19 20 21 22 23 24 26
5 6 5 3 2 2 2 2 4 4 4 5 6 5 6 6 7 8 7 8 8 8 8 8 8 8 8 9 11 12 13 15 15 17 17 19 21 23 24 25 26 27 29
8 8 9 7 4 5 5 5 6 6 6 6 7 7 7 7 9 10 12 13 14 13 12 12 12 13 13 13 15 16 18 19 21 21 20 20 21 25 26 28 29 30 29
10 10 10 9 6 8 6 8 10 8 8 8 8 6 4 7 9 13 14 15 16 17 17 16 15 14 15 16 17 18 19 21 21 24 22 24 27 29 29 29 30 31 33
13 14 13 11 10 11 9 9 12 12 11 10 10 6 6 9 12 13 14 17 17 15 15 13 14 13 17 19 21 22 22 23 26 27 26 28 30 30 30 29 29 29 31
17 21 17 14 16 15 13 11 11 13 11 11 10 9 10 12 13 15 17 18 18 15 14 14 15 17 19 21 23 23 21 21 24 26 26 26 29 27 26 26 29 32 35
21 24 20 19 20 20 17 14 15 15 14 13 13 15 16 17 17 18 19 19 18 18 17 18 18 20 21 21 22 23 21 23 23 23 23 24 24 24 27 30 33 34 36
27 28 26 22 24 25 24 20 17 18 17 16 17 18 20 20 20 20 21 20 19 19 19 19 21 23 21 21 22 23 23 23 22 21 21 23 25 27 30 33 35 36 37
33 32 31 30 27 26 27 27 25 23 21 21 21 20 21 21 22 22 24 22 22 22 22 21 22 23 23 22 24 25 23 22 22 22 24 25 26 29 32 33 35 37 39
34 33 31 30 31 32 31 30 29 28 28 26 25 25 23 23 24 24 26 26 24 23 23 24 24 24 24 25 26 25 24 24 24 25 27 28 30 33 34 35 36 39 40
37 36 35 32 33 34 35 36 34 32 31 29 28 28 27 26 26 26 28 26 25 25 24 25 24 25 26 26 26 25 25 25 26 28 31 33 34 36 37 38 40 42 43
39 41 40 37 36 36 36 36 36 37 35 32 33 29 28 29 28 27 29 28 27 26 26 27 26 27 28 29 28 27 26 27 28 31 34 36 37 38 39 40 42 43 45
39 42 42 42 41 39 38 38 37 36 35 35 33 30 29 29 29 28 28 28 28 27 28 28 27 28 29 30 30 29 28 30 32 33 36 37 37 38 39 40 42 43 45
42 45 45 44 42 42 42 41 39 38 37 36 33 31 30 30 30 28 27 26 27 28 30 30 28 29 30 29 29 30 31 32 34 36 38 39 38 38 39 41 42 42 43
44 44 45 45 46 45 45 44 42 41 41 38 35 33 33 32 29 29 29 28 29 30 31 30 29 30 31 30 29 29 30 31 34 35 35 36 36 38 39 39 40 41 43
Wind_Direction
75 75 76 80 76 73 66 59 58 65 69 62 54 73 114 129 114 105 109 120 118 116 122 121 115 127 122 117 122 128 134 134 128 130 130 142 166 164 170 168 172 191 247
85 82 83 86 83 82 81 81 70 67 79 84 77 68 89 118 133 129 115 118 116 119 132 108 117 123 125 118 126 133 136 136 132 134 155 160 169 172 182 172 194 322 342
87 88 90 87 82 84 85 84 84 82 81 84 78 81 88 117 133 119 132 117 122 121 106 123 125 127 128 142 144 144 143 138 147 152 158 169 180 175 173 108 360 5 358
85 92 93 87 82 83 85 92 98 91 85 86 83 84 87 104 115 148 132 112 122 142 145 154 155 143 142 146 146 143 144 152 148 163 177 180 178 163 171 211 266 328 344
87 90 95 97 85 83 84 87 96 102 96 95 93 91 96 95 105 110 119 119 118 122 124 123 138 152 149 147 150 149 155 150 152 166 169 169 172 189 234 255 286 315 328
95 94 94 96 96 88 90 92 94 97 100 97 92 97 98 117 117 109 106 112 118 120 120 123 126 132 134 136 138 144 138 151 162 167 172 182 191 223 246 273 294 308 313
99 98 96 95 99 99 93 91 91 93 93 96 103 103 100 104 108 108 121 120 113 110 110 114 114 112 110 114 127 125 135 157 159 178 202 229 212 253 266 282 292 298 304
92 95 92 88 86 92 93 90 92 91 91 91 94 99 103 108 116 117 116 114 109 111 117 119 130 131 131 123 111 118 122 149 189 221 231 243 251 261 271 282 289 297 300
100 93 89 87 83 81 89 94 92 86 88 88 86 88 91 95 94 92 94 96 100 109 115 119 123 140 148 161 177 177 164 180 220 242 245 257 265 274 279 285 294 301 304
123 110 98 89 86 85 85 88 92 93 88 84 82 80 79 78 77 75 73 71 69 70 72 77 75 68 79 181 218 219 197 202 226 252 265 266 271 278 287 296 302 301 305
139 138 134 117 99 89 83 83 84 90 92 88 81 79 78 77 73 71 66 61 57 53 49 43 34 15 350 335 324 304 299 287 282 283 285 289 293 294 298 300 301 306 308
233 206 192 159 124 108 83 59 67 62 60 65 80 83 71 65 59 57 50 42 33 19 11 4 356 345 335 329 319 310 304 299 294 288 287 294 299 300 299 297 298 303 306
273 267 260 254 277 293 337 332 337 357 8 19 10 21 46 40 37 30 15 357 343 334 329 317 312 313 305 306 301 302 302 298 294 291 298 296 296 299 300 302 301 302 302
279 266 260 260 266 275 289 297 304 304 321 334 334 344 3 16 6 353 350 339 331 323 311 306 306 305 303 299 297 297 292 299 301 299 302 306 299 300 304 303 302 303 299
258 267 258 254 248 258 265 278 279 279 298 311 311 322 352 344 336 333 334 330 319 314 310 305 303 302 301 296 292 289 289 290 291 296 299 301 296 293 295 296 293 293 299
257 257 259 261 246 248 245 258 279 289 292 296 288 297 314 312 317 326 328 317 308 300 294 295 296 293 286 284 284 288 292 294 295 298 297 292 290 292 291 293 298 301 302
246 252 255 253 249 251 250 249 261 271 278 273 274 283 288 293 311 321 326 320 308 302 291 286 292 289 280 278 281 284 288 291 286 284 287 287 287 290 298 303 304 304 300
246 254 256 250 249 250 249 251 259 265 269 275 275 276 280 284 296 312 321 327 319 305 302 299 292 282 282 284 286 290 291 285 286 288 289 288 290 298 301 300 298 298 296
241 251 253 252 252 255 257 260 262 270 274 278 278 283 286 286 291 301 313 321 318 312 306 300 293 290 291 288 288 289 288 287 287 286 286 290 295 296 296 296 297 297 298
241 247 253 255 255 258 261 265 268 272 277 283 285 288 291 291 297 297 300 306 314 311 308 302 293 292 290 289 289 291 290 289 288 287 289 291 294 295 295 296 296 297 296
239 246 251 256 257 257 261 264 268 272 275 280 286 289 290 293 295 294 295 299 303 309 304 300 295 291 289 290 290 290 287 287 286 288 291 294 297 299 299 300 299 297 296
244 243 249 255 259 258 260 263 266 269 274 277 280 282 286 288 291 293 297 296 299 307 306 302 294 290 289 289 289 286 285 286 287 288 292 295 298 301 302 303 303 301 301
244 245 247 250 252 254 257 260 263 265 270 273 276 279 281 282 286 290 293 296 298 303 304 302 294 290 291 290 289 287 286 286 287 288 292 295 298 301 304 303 302 302 303
246 249 251 253 255 256 259 261 263 266 268 270 274 279 278 281 283 287 289 293 296 300 300 298 293 291 291 292 292 290 289 289 288 290 293 295 297 300 300 301 302 304 304
245 247 251 253 258 260 259 261 265 267 269 271 276 277 277 277 280 284 287 292 297 299 297 293 290 288 290 291 291 291 291 292 295 296 297 299 300 301 303 305 307 307 308
240 245 248 251 255 257 260 262 264 266 270 273 274 276 277 278 280 283 285 289 294 295 294 288 285 286 289 290 291 290 290 290 290 291 293 295 298 300 303 305 308 309 309